TimeCET,TemperatureF,Dew PointF,Humidity,Sea Level PressureIn,VisibilityMPH,Wind Direction,Wind SpeedMPH,Gust SpeedMPH,PrecipitationIn,Events,Conditions,WindDirDegrees,DateUTC
12:30 AM,46.4,44.6,93,30.63,6.2,NE,1.2,-,N/A,,Partly Cloudy,50,2013-01-03 23:30:00
1:00 AM,44,41,85,30.65,9,Calm,Calm,,,,Scattered Clouds,,2013-01-04 00:00:00
1:30 AM,44.6,42.8,93,30.63,6.2,Calm,Calm,-,N/A,,Partly Cloudy,0,2013-01-04 00:30:00
2:00 AM,42.8,41.0,93,30.63,6.2,NNE,1.2,-,N/A,,Partly Cloudy,30,2013-01-04 01:00:00
2:30 AM,41.0,41.0,100,30.63,6.2,East,1.2,-,N/A,Fog,Patches of Fog,100,2013-01-04 01:30:00
3:00 AM,41.0,41.0,100,30.63,6.2,Calm,Calm,-,N/A,Fog,Patches of Fog,0,2013-01-04 02:00:00
3:30 AM,41.0,39.2,93,30.63,5.0,NE,1.2,-,N/A,,Partly Cloudy,40,2013-01-04 02:30:00
4:00 AM,41.0,39.2,93,30.63,5.0,ENE,1.2,-,N/A,Fog,Patches of Fog,70,2013-01-04 03:00:00
4:30 AM,39.2,37.4,93,30.63,5.0,NNE,1.2,-,N/A,Fog,Patches of Fog,30,2013-01-04 03:30:00
5:00 AM,37.4,37.4,100,30.63,5.0,NNE,1.2,-,N/A,,Partly Cloudy,30,2013-01-04 04:00:00
5:30 AM,37.4,35.6,93,30.60,5.0,NNE,1.2,-,N/A,,Partly Cloudy,30,2013-01-04 04:30:00
6:00 AM,37.4,35.6,93,30.60,5.0,NE,2.3,-,N/A,,Partly Cloudy,40,2013-01-04 05:00:00
6:30 AM,37.4,35.6,93,30.60,5.0,Calm,Calm,-,N/A,,Partly Cloudy,0,2013-01-04 05:30:00
7:00 AM,35,34,95,30.62,5,Calm,Calm,,,,Mist,,2013-01-04 06:00:00
7:00 AM,37.4,35.6,93,30.60,5.0,Calm,Calm,-,N/A,,Partly Cloudy,0,2013-01-04 06:00:00
7:30 AM,35.6,35.6,100,30.60,6.2,Calm,Calm,-,N/A,,Partly Cloudy,0,2013-01-04 06:30:00
8:00 AM,35.6,33.8,93,30.60,6.2,Variable,1.2,-,N/A,,Partly Cloudy,0,2013-01-04 07:00:00
8:30 AM,35.6,35.6,100,30.60,6.2,Calm,Calm,-,N/A,,Partly Cloudy,0,2013-01-04 07:30:00
9:00 AM,39.2,37.4,93,30.60,6.2,Variable,1.2,-,N/A,,Partly Cloudy,0,2013-01-04 08:00:00
9:30 AM,42.8,41.0,93,30.60,6.2,Calm,Calm,-,N/A,,Partly Cloudy,0,2013-01-04 08:30:00
10:00 AM,42.8,42.8,100,30.60,6.2,Calm,Calm,-,N/A,,Partly Cloudy,0,2013-01-04 09:00:00
10:30 AM,48.2,48.2,100,30.60,-9999.0,Calm,Calm,-,N/A,,Clear,0,2013-01-04 09:30:00
11:00 AM,51.8,50.0,94,30.60,-9999.0,Variable,1.2,-,N/A,,Clear,0,2013-01-04 10:00:00
11:30 AM,57.2,48.2,72,30.60,-9999.0,WSW,5.8,-,N/A,,Clear,240,2013-01-04 10:30:00
12:00 PM,59.0,44.6,59,30.60,6.2,WSW,4.6,-,N/A,,Partly Cloudy,250,2013-01-04 11:00:00
12:30 PM,60.8,44.6,55,30.57,6.2,West,4.6,-,N/A,,Partly Cloudy,280,2013-01-04 11:30:00
1:00 PM,61,42,38,30.58,19,WSW,2.3,,,,Scattered Clouds,250,2013-01-04 12:00:00
1:00 PM,60.8,46.4,59,30.57,6.2,West,4.6,-,N/A,,Partly Cloudy,270,2013-01-04 12:00:00
1:30 PM,60.8,44.6,55,30.57,6.2,NW,9.2,-,N/A,,Partly Cloudy,320,2013-01-04 12:30:00
2:30 PM,60.8,46.4,59,30.54,6.2,NNW,11.5,-,N/A,,Partly Cloudy,330,2013-01-04 13:30:00
3:30 PM,60.8,48.2,63,30.51,6.2,WSW,9.2,-,N/A,,Partly Cloudy,250,2013-01-04 14:30:00
4:00 PM,62.6,48.2,59,30.51,6.2,WSW,11.5,-,N/A,,Partly Cloudy,240,2013-01-04 15:00:00
4:30 PM,60.8,46.4,59,30.51,6.2,Variable,2.3,-,N/A,,Partly Cloudy,0,2013-01-04 15:30:00
5:00 PM,59.0,41.0,51,30.51,6.2,NW,3.5,-,N/A,,Partly Cloudy,310,2013-01-04 16:00:00
5:30 PM,57.2,41.0,55,30.51,-9999.0,NW,6.9,-,N/A,,Clear,320,2013-01-04 16:30:00
6:00 PM,55.4,42.8,63,30.51,-9999.0,NW,5.8,-,N/A,,Clear,320,2013-01-04 17:00:00
6:30 PM,53.6,42.8,67,30.51,-9999.0,NNW,5.8,-,N/A,,Clear,330,2013-01-04 17:30:00
7:00 PM,51,40,56,30.53,12,NW,3.5,,,,Clear,320,2013-01-04 18:00:00
7:00 PM,51.8,42.8,71,30.51,-9999.0,Calm,Calm,-,N/A,,Clear,0,2013-01-04 18:00:00
7:30 PM,53.6,42.8,67,30.51,-9999.0,Variable,2.3,-,N/A,,Clear,0,2013-01-04 18:30:00
8:00 PM,51.8,42.8,71,30.51,-9999.0,South,2.3,-,N/A,,Clear,170,2013-01-04 19:00:00
8:30 PM,50.0,42.8,76,30.51,-9999.0,Variable,1.2,-,N/A,,Clear,0,2013-01-04 19:30:00
9:00 PM,46.4,39.2,76,30.51,-9999.0,SSE,2.3,-,N/A,,Clear,160,2013-01-04 20:00:00
9:30 PM,44.6,41.0,87,30.51,-9999.0,Variable,1.2,-,N/A,,Clear,0,2013-01-04 20:30:00
10:00 PM,44.6,41.0,87,30.51,-9999.0,Variable,1.2,-,N/A,,Clear,0,2013-01-04 21:00:00
10:30 PM,42.8,41.0,93,30.51,-9999.0,Variable,1.2,-,N/A,,Clear,0,2013-01-04 21:30:00
11:00 PM,41.0,39.2,93,30.51,-9999.0,Calm,Calm,-,N/A,,Clear,0,2013-01-04 22:00:00
11:30 PM,42.8,39.2,87,30.51,6.2,Variable,1.2,-,N/A,,Partly Cloudy,0,2013-01-04 22:30:00